This is the latest recevied weather packets stored in our database for station/object SR9NLI. If no packets are shown the sender has not sent any weather packets the latest 1 day(s).
| Time | Temp. | Humidity | Pressure | Rain* | Wind** | Luminosity | Snow |
|---|---|---|---|---|---|---|---|
| 1777994777 | 23.33° C | 100% | 949.6 hPa | - | 1.79 m/s, 193° | - | - |
| 1777994654 | 23.33° C | 100% | 949.5 hPa | - | 2.24 m/s, 184° | - | - |
| 1777994531 | 23.33° C | 100% | 949.6 hPa | - | 1.79 m/s, 191° | - | - |
| 1777994471 | 23.33° C | 100% | 949.4 hPa | - | 1.79 m/s, 216° | - | - |
| 1777994408 | 23.89° C | 100% | 949.7 hPa | - | 1.34 m/s, 238° | - | - |
| 1777994285 | 23.89° C | 100% | 949.6 hPa | - | 1.34 m/s, 221° | - | - |
| 1777994163 | 23.89° C | 100% | 949.5 hPa | - | 1.34 m/s, 214° | - | - |
| 1777994103 | 23.89° C | 100% | 949.5 hPa | - | 1.34 m/s, 210° | - | - |
| 1777994041 | 23.89° C | 100% | 949.7 hPa | - | 1.79 m/s, 195° | - | - |
| 1777993918 | 23.89° C | 100% | 949.5 hPa | - | 1.79 m/s, 197° | - | - |
| 1777993795 | 23.89° C | 100% | 949.6 hPa | - | 1.79 m/s, 203° | - | - |
| 1777993735 | 23.89° C | 100% | 949.6 hPa | - | 1.79 m/s, 197° | - | - |
| 1777993673 | 23.89° C | 100% | 949.5 hPa | - | 2.24 m/s, 196° | - | - |
| 1777993550 | 23.89° C | 100% | 949.5 hPa | - | 2.24 m/s, 195° | - | - |
| 1777993426 | 23.89° C | 100% | 949.6 hPa | - | 2.24 m/s, 197° | - | - |
| 1777993366 | 23.89° C | 100% | 949.6 hPa | - | 3.13 m/s, 193° | - | - |
| 1777993303 | 23.89° C | 100% | 949.6 hPa | - | 3.13 m/s, 186° | - | - |
| 1777993180 | 23.33° C | 100% | 949.7 hPa | - | 4.02 m/s, 171° | - | - |
| 1777993057 | 23.89° C | 100% | 949.7 hPa | - | 3.13 m/s, 172° | - | - |
| 1777992996 | 23.33° C | 100% | 949.6 hPa | - | 3.13 m/s, 174° | - | - |
| 1777992934 | 23.89° C | 100% | 949.7 hPa | - | 1.79 m/s, 180° | - | - |
| 1777992811 | 23.33° C | 100% | 949.5 hPa | - | 1.79 m/s, 212° | - | - |
| 1777992688 | 23.33° C | 100% | 949.4 hPa | - | 2.24 m/s, 205° | - | - |
| 1777992627 | 23.33° C | 100% | 949.6 hPa | - | 2.24 m/s, 196° | - | - |
| 1777992565 | 23.33° C | 100% | 949.6 hPa | - | 2.24 m/s, 193° | - | - |
* Rain since midnight (hover to see other rain measurements)
** Current wind speed in m/s (hover to see current wind gust speed)